Year,Month,Day,Hour,Minute,Value (Times are PST for temperature in C)
2019,08,04,00,00,15.90
2019,08,04,00,01,15.90
2019,08,04,00,02,15.90
2019,08,04,00,03,15.80
2019,08,04,00,04,15.80
2019,08,04,00,05,15.80
2019,08,04,00,06,15.80
2019,08,04,00,07,15.80
2019,08,04,00,08,15.80
2019,08,04,00,09,15.70
2019,08,04,00,10,15.70
2019,08,04,00,11,15.70
2019,08,04,00,12,15.70
2019,08,04,00,13,15.70
2019,08,04,00,14,15.70
2019,08,04,00,15,15.60
2019,08,04,00,16,15.60
2019,08,04,00,17,15.60
2019,08,04,00,18,15.60
2019,08,04,00,19,15.50
2019,08,04,00,20,15.50
2019,08,04,00,21,15.50
2019,08,04,00,22,15.50
2019,08,04,00,23,15.50
2019,08,04,00,24,15.40
2019,08,04,00,25,15.40
2019,08,04,00,26,15.40
2019,08,04,00,27,15.40
2019,08,04,00,28,15.40
2019,08,04,00,29,15.40
2019,08,04,00,30,15.40
2019,08,04,00,31,15.40
2019,08,04,00,32,15.30
2019,08,04,00,33,15.30
2019,08,04,00,34,15.30
2019,08,04,00,35,15.30
2019,08,04,00,36,15.30
2019,08,04,00,37,15.30
2019,08,04,00,38,15.30
2019,08,04,00,39,15.30
2019,08,04,00,40,15.30
2019,08,04,00,41,15.30
2019,08,04,00,42,15.30
2019,08,04,00,43,15.30
2019,08,04,00,44,15.20
2019,08,04,00,45,15.20
2019,08,04,00,46,15.20
2019,08,04,00,47,15.10
2019,08,04,00,48,15.10
2019,08,04,00,49,15.10
2019,08,04,00,50,15.10
2019,08,04,00,51,15.00
2019,08,04,00,52,15.00
2019,08,04,00,53,14.90
2019,08,04,00,54,14.90
2019,08,04,00,55,14.90
2019,08,04,00,56,14.90
2019,08,04,00,57,14.90
2019,08,04,00,58,14.80
2019,08,04,00,59,14.80
2019,08,04,01,00,14.80
2019,08,04,01,01,14.80
2019,08,04,01,02,14.80
2019,08,04,01,03,14.80
2019,08,04,01,04,14.80
2019,08,04,01,05,14.80
2019,08,04,01,06,14.80
2019,08,04,01,07,14.70
2019,08,04,01,08,14.70
2019,08,04,01,09,14.70
2019,08,04,01,10,14.70
2019,08,04,01,11,14.70
2019,08,04,01,12,14.70
2019,08,04,01,13,14.70
2019,08,04,01,14,14.70
2019,08,04,01,15,14.60
2019,08,04,01,16,14.60
2019,08,04,01,17,14.60
2019,08,04,01,18,14.60
2019,08,04,01,19,14.60
2019,08,04,01,20,14.60
2019,08,04,01,21,14.60
2019,08,04,01,22,14.60
2019,08,04,01,23,14.60
2019,08,04,01,24,14.60
2019,08,04,01,25,14.60
2019,08,04,01,26,14.60
2019,08,04,01,27,14.60
2019,08,04,01,28,14.60
2019,08,04,01,29,14.60
2019,08,04,01,30,14.60
2019,08,04,01,31,14.50
2019,08,04,01,32,14.50
2019,08,04,01,33,14.50
2019,08,04,01,34,14.50
2019,08,04,01,35,14.50
2019,08,04,01,36,14.40
2019,08,04,01,37,14.40
2019,08,04,01,38,14.40
2019,08,04,01,39,14.40
2019,08,04,01,40,14.40
2019,08,04,01,41,14.40
2019,08,04,01,42,14.40
2019,08,04,01,43,14.40
2019,08,04,01,44,14.30
2019,08,04,01,45,14.30
2019,08,04,01,46,14.30
2019,08,04,01,47,14.30
2019,08,04,01,48,14.30
2019,08,04,01,49,14.30
2019,08,04,01,50,14.30
2019,08,04,01,51,14.30
2019,08,04,01,52,14.30
2019,08,04,01,53,14.30
2019,08,04,01,54,14.30
2019,08,04,01,55,14.30
2019,08,04,01,56,14.20
2019,08,04,01,57,14.20
2019,08,04,01,58,14.20
2019,08,04,01,59,14.20
2019,08,04,02,00,14.20
2019,08,04,02,01,14.20
2019,08,04,02,02,14.20
2019,08,04,02,03,14.20
2019,08,04,02,04,14.20
2019,08,04,02,05,14.20
2019,08,04,02,06,14.10
2019,08,04,02,07,14.10
2019,08,04,02,08,14.10
2019,08,04,02,09,14.10
2019,08,04,02,10,14.10
2019,08,04,02,11,14.10
2019,08,04,02,12,14.10
2019,08,04,02,13,14.10
2019,08,04,02,14,14.10
2019,08,04,02,15,14.10
2019,08,04,02,16,14.10
2019,08,04,02,17,14.10
2019,08,04,02,18,14.10
2019,08,04,02,19,14.10
2019,08,04,02,20,14.10
2019,08,04,02,21,14.00
2019,08,04,02,22,14.00
2019,08,04,02,23,14.00
2019,08,04,02,24,14.00
2019,08,04,02,25,14.00
2019,08,04,02,26,14.00
2019,08,04,02,27,14.00
2019,08,04,02,28,13.90
2019,08,04,02,29,13.90
2019,08,04,02,30,13.90
2019,08,04,02,31,13.90
2019,08,04,02,32,13.90
2019,08,04,02,33,13.90
2019,08,04,02,34,13.90
2019,08,04,02,35,13.80
2019,08,04,02,36,13.80
2019,08,04,02,37,13.80
2019,08,04,02,38,13.80
2019,08,04,02,39,13.80
2019,08,04,02,40,13.80
2019,08,04,02,41,13.80
2019,08,04,02,42,13.80
2019,08,04,02,43,13.80
2019,08,04,02,44,13.80
2019,08,04,02,45,13.80
2019,08,04,02,46,13.80
2019,08,04,02,47,13.70
2019,08,04,02,48,13.70
2019,08,04,02,49,13.70
2019,08,04,02,50,13.70
2019,08,04,02,51,13.70
2019,08,04,02,52,13.70
2019,08,04,02,53,13.70
2019,08,04,02,54,13.60
2019,08,04,02,55,13.60
2019,08,04,02,56,13.60
2019,08,04,02,57,13.60
2019,08,04,02,58,13.60
2019,08,04,02,59,13.60
2019,08,04,03,00,13.60
2019,08,04,03,01,13.50
2019,08,04,03,02,13.50
2019,08,04,03,03,13.50
2019,08,04,03,04,13.50
2019,08,04,03,05,13.40
2019,08,04,03,06,13.40
2019,08,04,03,07,13.40
2019,08,04,03,08,13.40
2019,08,04,03,09,13.40
2019,08,04,03,10,13.40
2019,08,04,03,11,13.40
2019,08,04,03,12,13.40
2019,08,04,03,13,13.40
2019,08,04,03,14,13.30
2019,08,04,03,15,13.30
2019,08,04,03,16,13.30
2019,08,04,03,17,13.30
2019,08,04,03,18,13.30
2019,08,04,03,19,13.30
2019,08,04,03,20,13.30
2019,08,04,03,21,13.30
2019,08,04,03,22,13.30
2019,08,04,03,23,13.30
2019,08,04,03,24,13.20
2019,08,04,03,25,13.20
2019,08,04,03,26,13.20
2019,08,04,03,27,13.20
2019,08,04,03,28,13.20
2019,08,04,03,29,13.20
2019,08,04,03,30,13.20
2019,08,04,03,31,13.20
2019,08,04,03,32,13.20
2019,08,04,03,33,13.20
2019,08,04,03,34,13.10
2019,08,04,03,35,13.20
2019,08,04,03,36,13.20
2019,08,04,03,37,13.10
2019,08,04,03,38,13.10
2019,08,04,03,39,13.10
2019,08,04,03,40,13.10
2019,08,04,03,41,13.10
2019,08,04,03,42,13.10
2019,08,04,03,43,13.10
2019,08,04,03,44,13.10
2019,08,04,03,45,13.10
2019,08,04,03,46,13.10
2019,08,04,03,47,13.10
2019,08,04,03,48,13.10
2019,08,04,03,49,13.10
2019,08,04,03,50,13.00
2019,08,04,03,51,13.00
2019,08,04,03,52,13.00
2019,08,04,03,53,13.00
2019,08,04,03,54,13.00
2019,08,04,03,55,13.00
2019,08,04,03,56,13.00
2019,08,04,03,57,13.00
2019,08,04,03,58,13.00
2019,08,04,03,59,13.00
2019,08,04,04,00,13.00
2019,08,04,04,01,13.00
2019,08,04,04,02,12.90
2019,08,04,04,03,12.90
2019,08,04,04,04,12.90
2019,08,04,04,05,12.90
2019,08,04,04,06,12.90
2019,08,04,04,07,12.90
2019,08,04,04,08,12.90
2019,08,04,04,09,12.90
2019,08,04,04,10,12.90
2019,08,04,04,11,12.90
2019,08,04,04,12,12.90
2019,08,04,04,13,12.90
2019,08,04,04,14,12.90
2019,08,04,04,15,12.80
2019,08,04,04,16,12.80
2019,08,04,04,17,12.80
2019,08,04,04,18,12.80
2019,08,04,04,19,12.80
2019,08,04,04,20,12.80
2019,08,04,04,21,12.80
2019,08,04,04,22,12.80
2019,08,04,04,23,12.80
2019,08,04,04,24,12.80
2019,08,04,04,25,12.80
2019,08,04,04,26,12.80
2019,08,04,04,27,12.80
2019,08,04,04,28,12.70
2019,08,04,04,29,12.70
2019,08,04,04,30,12.70
2019,08,04,04,31,12.70
2019,08,04,04,32,12.70
2019,08,04,04,33,12.70
2019,08,04,04,34,12.70
2019,08,04,04,35,12.70
2019,08,04,04,36,12.70
2019,08,04,04,37,12.70
2019,08,04,04,38,12.70
2019,08,04,04,39,12.70
2019,08,04,04,40,12.60
2019,08,04,04,41,12.60
2019,08,04,04,42,12.60
2019,08,04,04,43,12.60
2019,08,04,04,44,12.60
2019,08,04,04,45,12.60
2019,08,04,04,46,12.60
2019,08,04,04,47,12.60
2019,08,04,04,48,12.60
2019,08,04,04,49,12.60
2019,08,04,04,50,12.60
2019,08,04,04,51,12.60
2019,08,04,04,52,12.60
2019,08,04,04,53,12.60
2019,08,04,04,54,12.50
2019,08,04,04,55,12.50
2019,08,04,04,56,12.50
2019,08,04,04,57,12.50
2019,08,04,04,58,12.50
2019,08,04,04,59,12.40
2019,08,04,05,00,12.40
2019,08,04,05,01,12.40
2019,08,04,05,02,12.40
2019,08,04,05,03,12.40
2019,08,04,05,04,12.40
2019,08,04,05,05,12.40
2019,08,04,05,06,12.40
2019,08,04,05,07,12.40
2019,08,04,05,08,12.40
2019,08,04,05,09,12.30
2019,08,04,05,10,12.30
2019,08,04,05,11,12.30
2019,08,04,05,12,12.30
2019,08,04,05,13,12.30
2019,08,04,05,14,12.30
2019,08,04,05,15,12.30
2019,08,04,05,16,12.30
2019,08,04,05,17,12.30
2019,08,04,05,18,12.30
2019,08,04,05,19,12.30
2019,08,04,05,20,12.20
2019,08,04,05,21,12.20
2019,08,04,05,22,12.20
2019,08,04,05,23,12.20
2019,08,04,05,24,12.20
2019,08,04,05,25,12.20
2019,08,04,05,26,12.20
2019,08,04,05,27,12.20
2019,08,04,05,28,12.20
2019,08,04,05,29,12.20
2019,08,04,05,30,12.20
2019,08,04,05,31,12.20
2019,08,04,05,32,12.20
2019,08,04,05,33,12.20
2019,08,04,05,34,12.20
2019,08,04,05,35,12.20
2019,08,04,05,36,12.20
2019,08,04,05,37,12.20
2019,08,04,05,38,12.20
2019,08,04,05,39,12.20
2019,08,04,05,40,12.10
2019,08,04,05,41,12.10
2019,08,04,05,42,12.20
2019,08,04,05,43,12.10
2019,08,04,05,44,12.10
2019,08,04,05,45,12.10
2019,08,04,05,46,12.10
2019,08,04,05,47,12.10
2019,08,04,05,48,12.10
2019,08,04,05,49,12.10
2019,08,04,05,50,12.10
2019,08,04,05,51,12.10
2019,08,04,05,52,12.10
2019,08,04,05,53,12.10
2019,08,04,05,54,12.10
2019,08,04,05,55,12.10
2019,08,04,05,56,12.10
2019,08,04,05,57,12.10
2019,08,04,05,58,12.10
2019,08,04,05,59,12.10
2019,08,04,06,00,12.00
2019,08,04,06,01,12.00
2019,08,04,06,02,12.00
2019,08,04,06,03,12.00
2019,08,04,06,04,12.00
2019,08,04,06,05,12.00
2019,08,04,06,06,12.00
2019,08,04,06,07,12.00
2019,08,04,06,08,12.00
2019,08,04,06,09,12.00
2019,08,04,06,10,12.00
2019,08,04,06,11,12.00
2019,08,04,06,12,12.00
2019,08,04,06,13,12.00
2019,08,04,06,14,12.00
2019,08,04,06,15,12.00
2019,08,04,06,16,12.00
2019,08,04,06,17,11.90
2019,08,04,06,18,12.00
2019,08,04,06,19,12.00
2019,08,04,06,20,12.00
2019,08,04,06,21,12.00
2019,08,04,06,22,11.90
2019,08,04,06,23,12.00
2019,08,04,06,24,11.90
2019,08,04,06,25,11.90
2019,08,04,06,26,11.90
2019,08,04,06,27,12.00
2019,08,04,06,28,11.90
2019,08,04,06,29,11.90
2019,08,04,06,30,11.90
2019,08,04,06,31,11.90
2019,08,04,06,32,11.90
2019,08,04,06,33,11.90
2019,08,04,06,34,11.90
2019,08,04,06,35,11.90
2019,08,04,06,36,11.90
2019,08,04,06,37,12.00
2019,08,04,06,38,11.90
2019,08,04,06,39,11.90
2019,08,04,06,40,11.90
2019,08,04,06,41,12.00
2019,08,04,06,42,12.00
2019,08,04,06,43,12.00
2019,08,04,06,44,12.00
2019,08,04,06,45,12.00
2019,08,04,06,46,12.00
2019,08,04,06,47,12.10
2019,08,04,06,48,12.10
2019,08,04,06,49,12.10
2019,08,04,06,50,12.10
2019,08,04,06,51,12.10
2019,08,04,06,52,12.10
2019,08,04,06,53,12.10
2019,08,04,06,54,12.10
2019,08,04,06,55,12.10
2019,08,04,06,56,12.20
2019,08,04,06,57,12.20
2019,08,04,06,58,12.20
2019,08,04,06,59,12.20
2019,08,04,07,00,12.20
2019,08,04,07,01,12.20
2019,08,04,07,02,12.20
2019,08,04,07,03,12.30
2019,08,04,07,04,12.30
2019,08,04,07,05,12.40
2019,08,04,07,06,12.40
2019,08,04,07,07,12.40
2019,08,04,07,08,12.50
2019,08,04,07,09,12.60
2019,08,04,07,10,12.60
2019,08,04,07,11,12.70
2019,08,04,07,12,12.70
2019,08,04,07,13,12.80
2019,08,04,07,14,12.80
2019,08,04,07,15,12.90
2019,08,04,07,16,12.90
2019,08,04,07,17,13.00
2019,08,04,07,18,13.10
2019,08,04,07,19,13.10
2019,08,04,07,20,13.20
2019,08,04,07,21,13.30
2019,08,04,07,22,13.30
2019,08,04,07,23,13.40
2019,08,04,07,24,13.50
2019,08,04,07,25,13.60
2019,08,04,07,26,13.60
2019,08,04,07,27,13.60
2019,08,04,07,28,13.70
2019,08,04,07,29,13.70
2019,08,04,07,30,13.70
2019,08,04,07,31,13.80
2019,08,04,07,32,13.80
2019,08,04,07,33,13.80
2019,08,04,07,34,13.90
2019,08,04,07,35,13.90
2019,08,04,07,36,13.90
2019,08,04,07,37,14.00
2019,08,04,07,38,14.10
2019,08,04,07,39,14.10
2019,08,04,07,40,14.10
2019,08,04,07,41,14.20
2019,08,04,07,42,14.20
2019,08,04,07,43,14.20
2019,08,04,07,44,14.20
2019,08,04,07,45,14.30
2019,08,04,07,46,14.30
2019,08,04,07,47,14.30
2019,08,04,07,48,14.30
2019,08,04,07,49,14.40
2019,08,04,07,50,14.40
2019,08,04,07,51,14.40
2019,08,04,07,52,14.50
2019,08,04,07,53,14.50
2019,08,04,07,54,14.60
2019,08,04,07,55,14.60
2019,08,04,07,56,14.60
2019,08,04,07,57,14.60
2019,08,04,07,58,14.60
2019,08,04,07,59,14.70
2019,08,04,08,00,14.70
2019,08,04,08,01,14.70
2019,08,04,08,02,14.70
2019,08,04,08,03,14.80
2019,08,04,08,04,14.80
2019,08,04,08,05,14.80
2019,08,04,08,06,14.80
2019,08,04,08,07,14.90
2019,08,04,08,08,14.90
2019,08,04,08,09,14.90
2019,08,04,08,10,14.90
2019,08,04,08,11,15.00
2019,08,04,08,12,15.00
2019,08,04,08,13,15.10
2019,08,04,08,14,15.10
2019,08,04,08,15,15.10
2019,08,04,08,16,15.10
2019,08,04,08,17,15.20
2019,08,04,08,18,15.20
2019,08,04,08,19,15.30
2019,08,04,08,20,15.30
2019,08,04,08,21,15.30
2019,08,04,08,22,15.30
2019,08,04,08,23,15.30
2019,08,04,08,24,15.30
2019,08,04,08,25,15.30
2019,08,04,08,26,15.40
2019,08,04,08,27,15.40
2019,08,04,08,28,15.50
2019,08,04,08,29,15.60
2019,08,04,08,30,15.60
2019,08,04,08,31,15.60
2019,08,04,08,32,15.70
2019,08,04,08,33,15.70
2019,08,04,08,34,15.70
2019,08,04,08,35,15.80
2019,08,04,08,36,15.80
2019,08,04,08,37,15.80
2019,08,04,08,38,15.90
2019,08,04,08,39,15.90
2019,08,04,08,40,16.00
2019,08,04,08,41,16.10
2019,08,04,08,42,16.10
2019,08,04,08,43,16.20
2019,08,04,08,44,16.20
2019,08,04,08,45,16.30
2019,08,04,08,46,16.30
2019,08,04,08,47,16.30
2019,08,04,08,48,16.40
2019,08,04,08,49,16.40
2019,08,04,08,50,16.40
2019,08,04,08,51,16.40
2019,08,04,08,52,16.40
2019,08,04,08,53,16.50
2019,08,04,08,54,16.50
2019,08,04,08,55,16.60
2019,08,04,08,56,16.60
2019,08,04,08,57,16.60
2019,08,04,08,58,16.60
2019,08,04,08,59,16.70
2019,08,04,09,00,16.70
2019,08,04,09,01,16.70
2019,08,04,09,02,16.70
2019,08,04,09,03,16.80
2019,08,04,09,04,16.80
2019,08,04,09,05,16.90
2019,08,04,09,06,17.00
2019,08,04,09,07,17.10
2019,08,04,09,08,17.20
2019,08,04,09,09,17.20
2019,08,04,09,10,17.30
2019,08,04,09,11,17.30
2019,08,04,09,12,17.40
2019,08,04,09,13,17.40
2019,08,04,09,14,17.50
2019,08,04,09,15,17.60
2019,08,04,09,16,17.60
2019,08,04,09,17,17.50
2019,08,04,09,18,17.50
2019,08,04,09,19,17.50
2019,08,04,09,20,17.50
2019,08,04,09,21,17.40
2019,08,04,09,22,17.40
2019,08,04,09,23,17.50
2019,08,04,09,24,17.40
2019,08,04,09,25,17.40
2019,08,04,09,26,17.50
2019,08,04,09,27,17.50
2019,08,04,09,28,17.60
2019,08,04,09,29,17.60
2019,08,04,09,30,17.60
2019,08,04,09,31,17.70
2019,08,04,09,32,17.80
2019,08,04,09,33,17.80
2019,08,04,09,34,17.90
2019,08,04,09,35,17.90
2019,08,04,09,36,18.00
2019,08,04,09,37,18.10
2019,08,04,09,38,18.10
2019,08,04,09,39,18.10
2019,08,04,09,40,18.20
2019,08,04,09,41,18.20
2019,08,04,09,42,18.30
2019,08,04,09,43,18.30
2019,08,04,09,44,18.40
2019,08,04,09,45,18.50
2019,08,04,09,46,18.60
2019,08,04,09,47,18.60
2019,08,04,09,48,18.70
2019,08,04,09,49,18.70
2019,08,04,09,50,18.70
2019,08,04,09,51,18.70
2019,08,04,09,52,18.80
2019,08,04,09,53,18.80
2019,08,04,09,54,18.80
2019,08,04,09,55,18.80
2019,08,04,09,56,18.90
2019,08,04,09,57,18.90
2019,08,04,09,58,18.90
2019,08,04,09,59,18.90
2019,08,04,10,00,19.00
2019,08,04,10,01,19.10
2019,08,04,10,02,19.20
2019,08,04,10,03,19.20
2019,08,04,10,04,19.30
2019,08,04,10,05,19.30
2019,08,04,10,06,19.40
2019,08,04,10,07,19.50
2019,08,04,10,08,19.60
2019,08,04,10,09,19.70
2019,08,04,10,10,19.80
2019,08,04,10,11,19.90
2019,08,04,10,12,20.00
2019,08,04,10,13,20.10
2019,08,04,10,14,20.20
2019,08,04,10,15,20.30
2019,08,04,10,16,20.30
2019,08,04,10,17,20.40
2019,08,04,10,18,20.40
2019,08,04,10,19,20.50
2019,08,04,10,20,20.50
2019,08,04,10,21,20.60
2019,08,04,10,22,20.60
2019,08,04,10,23,20.60
2019,08,04,10,24,20.60
2019,08,04,10,25,20.70
2019,08,04,10,26,20.70
2019,08,04,10,27,20.70
2019,08,04,10,28,20.70
2019,08,04,10,29,20.70
2019,08,04,10,30,20.70
2019,08,04,10,31,20.80
2019,08,04,10,32,20.80
2019,08,04,10,33,20.80
2019,08,04,10,34,20.80
2019,08,04,10,35,20.90
2019,08,04,10,36,20.90
2019,08,04,10,37,21.00
2019,08,04,10,38,21.10
2019,08,04,10,39,21.20
2019,08,04,10,40,21.20
2019,08,04,10,41,21.30
2019,08,04,10,42,21.30
2019,08,04,10,43,21.40
2019,08,04,10,44,21.50
2019,08,04,10,45,21.60
2019,08,04,10,46,21.60
2019,08,04,10,47,21.70
2019,08,04,10,48,21.70
2019,08,04,10,49,21.70
2019,08,04,10,50,21.70
2019,08,04,10,51,21.80
2019,08,04,10,52,21.80
2019,08,04,10,53,21.80
2019,08,04,10,54,21.90
2019,08,04,10,55,21.90
2019,08,04,10,56,22.10
2019,08,04,10,57,22.20
2019,08,04,10,58,22.30
2019,08,04,10,59,22.40
2019,08,04,11,00,22.60
2019,08,04,11,01,22.70
2019,08,04,11,02,22.80
2019,08,04,11,03,22.80
2019,08,04,11,04,22.90
2019,08,04,11,05,23.00
2019,08,04,11,06,23.00
2019,08,04,11,07,23.00
2019,08,04,11,08,22.90
2019,08,04,11,09,22.90
2019,08,04,11,10,22.90
2019,08,04,11,11,22.90
2019,08,04,11,12,22.90
2019,08,04,11,13,22.90
2019,08,04,11,14,22.90
2019,08,04,11,15,23.00
2019,08,04,11,16,23.00
2019,08,04,11,17,23.10
2019,08,04,11,18,23.10
2019,08,04,11,19,23.10
2019,08,04,11,20,23.10
2019,08,04,11,21,23.10
2019,08,04,11,22,23.10
2019,08,04,11,23,23.10
2019,08,04,11,24,23.10
2019,08,04,11,25,23.10
2019,08,04,11,26,23.10
2019,08,04,11,27,23.10
2019,08,04,11,28,23.20
2019,08,04,11,29,23.30
2019,08,04,11,30,23.40
2019,08,04,11,31,23.50
2019,08,04,11,32,23.70
2019,08,04,11,33,23.70
2019,08,04,11,34,23.70
2019,08,04,11,35,23.80
2019,08,04,11,36,23.80
2019,08,04,11,37,23.80
2019,08,04,11,38,23.90
2019,08,04,11,39,23.90
2019,08,04,11,40,24.00
2019,08,04,11,41,24.10
2019,08,04,11,42,24.10
2019,08,04,11,43,24.10
2019,08,04,11,44,24.10
2019,08,04,11,45,24.10
2019,08,04,11,46,24.20
2019,08,04,11,47,24.30
2019,08,04,11,48,24.40
2019,08,04,11,49,24.60
2019,08,04,11,50,24.60
2019,08,04,11,51,24.70
2019,08,04,11,52,24.70
2019,08,04,11,53,24.80
2019,08,04,11,54,24.80
2019,08,04,11,55,24.90
2019,08,04,11,56,25.10
2019,08,04,11,57,25.20
2019,08,04,11,58,25.30
2019,08,04,11,59,25.30
2019,08,04,12,00,25.40
2019,08,04,12,01,25.40
2019,08,04,12,02,25.50
2019,08,04,12,03,25.60
2019,08,04,12,04,25.60
2019,08,04,12,05,25.80
2019,08,04,12,06,25.80
2019,08,04,12,07,25.90
2019,08,04,12,08,26.00
2019,08,04,12,09,26.10
2019,08,04,12,10,26.20
2019,08,04,12,11,26.30
2019,08,04,12,12,26.30
2019,08,04,12,13,26.40
2019,08,04,12,14,26.60
2019,08,04,12,15,26.60
2019,08,04,12,16,26.70
2019,08,04,12,17,26.80
2019,08,04,12,18,26.80
2019,08,04,12,19,26.80
2019,08,04,12,20,26.80
2019,08,04,12,21,26.80
2019,08,04,12,22,26.80
2019,08,04,12,23,26.90
2019,08,04,12,24,26.90
2019,08,04,12,25,27.00
2019,08,04,12,26,27.10
2019,08,04,12,27,27.20
2019,08,04,12,28,27.30
2019,08,04,12,29,27.40
2019,08,04,12,30,27.40
2019,08,04,12,31,27.40
2019,08,04,12,32,27.40
2019,08,04,12,33,27.40
2019,08,04,12,34,27.40
2019,08,04,12,35,27.40
2019,08,04,12,36,27.40
2019,08,04,12,37,27.50
2019,08,04,12,38,27.60
2019,08,04,12,39,27.70
2019,08,04,12,40,27.80
2019,08,04,12,41,27.80
2019,08,04,12,42,27.80
2019,08,04,12,43,27.80
2019,08,04,12,44,27.70
2019,08,04,12,45,27.80
2019,08,04,12,46,27.80
2019,08,04,12,47,27.90
2019,08,04,12,48,27.90
2019,08,04,12,49,28.00
2019,08,04,12,50,28.10
2019,08,04,12,51,28.10
2019,08,04,12,52,28.20
2019,08,04,12,53,28.40
2019,08,04,12,54,28.50
2019,08,04,12,55,28.70
2019,08,04,12,56,28.80
2019,08,04,12,57,28.80
2019,08,04,12,58,28.80
2019,08,04,12,59,28.80
2019,08,04,13,00,28.90
2019,08,04,13,01,28.90
2019,08,04,13,02,28.90
2019,08,04,13,03,28.90
2019,08,04,13,04,28.90
2019,08,04,13,05,28.90
2019,08,04,13,06,28.90
2019,08,04,13,07,28.90
2019,08,04,13,08,29.00
2019,08,04,13,09,29.00
2019,08,04,13,10,29.10
2019,08,04,13,11,29.20
2019,08,04,13,12,29.20
2019,08,04,13,13,29.30
2019,08,04,13,14,29.20
2019,08,04,13,15,29.20
2019,08,04,13,16,29.20
2019,08,04,13,17,29.20
2019,08,04,13,18,29.30
2019,08,04,13,19,29.30
2019,08,04,13,20,29.20
2019,08,04,13,21,29.20
2019,08,04,13,22,29.20
2019,08,04,13,23,29.20
2019,08,04,13,24,29.20
2019,08,04,13,25,29.20
2019,08,04,13,26,29.20
2019,08,04,13,27,29.20
2019,08,04,13,28,29.20
2019,08,04,13,29,29.20
2019,08,04,13,30,29.20
2019,08,04,13,31,29.20
2019,08,04,13,32,29.20
2019,08,04,13,33,29.20
2019,08,04,13,34,29.30
2019,08,04,13,35,29.30
2019,08,04,13,36,29.40
2019,08,04,13,37,29.40
2019,08,04,13,38,29.40
2019,08,04,13,39,29.50
2019,08,04,13,40,29.50
2019,08,04,13,41,29.60
2019,08,04,13,42,29.70
2019,08,04,13,43,29.70
2019,08,04,13,44,29.80
2019,08,04,13,45,29.80
2019,08,04,13,46,29.80
2019,08,04,13,47,29.80
2019,08,04,13,48,29.80
2019,08,04,13,49,29.80
2019,08,04,13,50,29.90
2019,08,04,13,51,30.00
2019,08,04,13,52,30.10
2019,08,04,13,53,30.10
2019,08,04,13,54,30.10
2019,08,04,13,55,30.20
2019,08,04,13,56,30.20
2019,08,04,13,57,30.20
2019,08,04,13,58,30.30
2019,08,04,13,59,30.30
2019,08,04,14,00,30.40
2019,08,04,14,01,30.60
2019,08,04,14,02,30.60
2019,08,04,14,03,30.70
2019,08,04,14,04,30.70
2019,08,04,14,05,30.80
2019,08,04,14,06,30.80
2019,08,04,14,07,30.90
2019,08,04,14,08,30.90
2019,08,04,14,09,30.90
2019,08,04,14,10,30.80
2019,08,04,14,11,30.80
2019,08,04,14,12,30.80
2019,08,04,14,13,30.90
2019,08,04,14,14,30.90
2019,08,04,14,15,30.90
2019,08,04,14,16,31.00
2019,08,04,14,17,31.10
2019,08,04,14,18,31.10
2019,08,04,14,19,31.10
2019,08,04,14,20,31.20
2019,08,04,14,21,31.30
2019,08,04,14,22,31.40
2019,08,04,14,23,31.50
2019,08,04,14,24,31.60
2019,08,04,14,25,31.70
2019,08,04,14,26,31.70
2019,08,04,14,27,31.80
2019,08,04,14,28,31.90
2019,08,04,14,29,31.90
2019,08,04,14,30,32.00
2019,08,04,14,31,32.00
2019,08,04,14,32,32.00
2019,08,04,14,33,31.90
2019,08,04,14,34,31.90
2019,08,04,14,35,31.70
2019,08,04,14,36,31.60
2019,08,04,14,37,31.60
2019,08,04,14,38,31.50
2019,08,04,14,39,31.60
2019,08,04,14,40,31.60
2019,08,04,14,41,31.60
2019,08,04,14,42,31.70
2019,08,04,14,43,31.70
2019,08,04,14,44,31.80
2019,08,04,14,45,31.80
2019,08,04,14,46,31.90
2019,08,04,14,47,31.90
2019,08,04,14,48,32.00
2019,08,04,14,49,32.10
2019,08,04,14,50,32.10
2019,08,04,14,51,32.20
2019,08,04,14,52,32.20
2019,08,04,14,53,32.30
2019,08,04,14,54,32.30
2019,08,04,14,55,32.40
2019,08,04,14,56,32.40
2019,08,04,14,57,32.60
2019,08,04,14,58,32.60
2019,08,04,14,59,32.70
2019,08,04,15,00,32.70
2019,08,04,15,01,32.70
2019,08,04,15,02,32.60
2019,08,04,15,03,32.60
2019,08,04,15,04,32.60
2019,08,04,15,05,32.60
2019,08,04,15,06,32.60
2019,08,04,15,07,32.50
2019,08,04,15,08,32.40
2019,08,04,15,09,32.40
2019,08,04,15,10,32.50
2019,08,04,15,11,32.60
2019,08,04,15,12,32.60
2019,08,04,15,13,32.50
2019,08,04,15,14,32.40
2019,08,04,15,15,32.50
2019,08,04,15,16,32.60
2019,08,04,15,17,32.60
2019,08,04,15,18,32.60
2019,08,04,15,19,32.60
2019,08,04,15,20,32.70
2019,08,04,15,21,32.70
2019,08,04,15,22,32.80
2019,08,04,15,23,32.80
2019,08,04,15,24,32.70
2019,08,04,15,25,32.80
2019,08,04,15,26,32.80
2019,08,04,15,27,32.90
2019,08,04,15,28,32.90
2019,08,04,15,29,33.00
2019,08,04,15,30,33.10
2019,08,04,15,31,33.20
2019,08,04,15,32,33.20
2019,08,04,15,33,33.30
2019,08,04,15,34,33.30
2019,08,04,15,35,33.10
2019,08,04,15,36,33.10
2019,08,04,15,37,33.00
2019,08,04,15,38,32.90
2019,08,04,15,39,32.90
2019,08,04,15,40,32.90
2019,08,04,15,41,32.90
2019,08,04,15,42,33.00
2019,08,04,15,43,33.10
2019,08,04,15,44,33.10
2019,08,04,15,45,33.10
2019,08,04,15,46,33.10
2019,08,04,15,47,33.10
2019,08,04,15,48,32.90
2019,08,04,15,49,32.90
2019,08,04,15,50,32.90
2019,08,04,15,51,32.90
2019,08,04,15,52,32.90
2019,08,04,15,53,32.90
2019,08,04,15,54,32.80
2019,08,04,15,55,32.70
2019,08,04,15,56,32.60
2019,08,04,15,57,32.60
2019,08,04,15,58,32.70
2019,08,04,15,59,32.70
2019,08,04,16,00,32.80
2019,08,04,16,01,32.80
2019,08,04,16,02,32.90
2019,08,04,16,03,33.00
2019,08,04,16,04,33.00
2019,08,04,16,05,33.00
2019,08,04,16,06,32.90
2019,08,04,16,07,33.00
2019,08,04,16,08,33.00
2019,08,04,16,09,33.10
2019,08,04,16,10,33.20
2019,08,04,16,11,33.20
2019,08,04,16,12,33.30
2019,08,04,16,13,33.30
2019,08,04,16,14,33.30
2019,08,04,16,15,33.40
2019,08,04,16,16,33.30
2019,08,04,16,17,33.30
2019,08,04,16,18,33.20
2019,08,04,16,19,33.20
2019,08,04,16,20,33.20
2019,08,04,16,21,33.20
2019,08,04,16,22,33.30
2019,08,04,16,23,33.30
2019,08,04,16,24,33.30
2019,08,04,16,25,33.30
2019,08,04,16,26,33.30
2019,08,04,16,27,33.30
2019,08,04,16,28,33.20
2019,08,04,16,29,33.20
2019,08,04,16,30,33.10
2019,08,04,16,31,33.10
2019,08,04,16,32,33.00
2019,08,04,16,33,32.90
2019,08,04,16,34,33.00
2019,08,04,16,35,33.10
2019,08,04,16,36,33.10
2019,08,04,16,37,33.20
2019,08,04,16,38,33.20
2019,08,04,16,39,33.30
2019,08,04,16,40,33.30
2019,08,04,16,41,33.30
2019,08,04,16,42,33.30
2019,08,04,16,43,33.30
2019,08,04,16,44,33.40
2019,08,04,16,45,33.40
2019,08,04,16,46,33.30
2019,08,04,16,47,33.40
2019,08,04,16,48,33.40
2019,08,04,16,49,33.40
2019,08,04,16,50,33.30
2019,08,04,16,51,33.40
2019,08,04,16,52,33.30
2019,08,04,16,53,33.30
2019,08,04,16,54,33.20
2019,08,04,16,55,33.20
2019,08,04,16,56,33.10
2019,08,04,16,57,33.10
2019,08,04,16,58,33.20
2019,08,04,16,59,33.20
2019,08,04,17,00,33.20
2019,08,04,17,01,33.20
2019,08,04,17,02,33.20
2019,08,04,17,03,33.20
2019,08,04,17,04,33.10
2019,08,04,17,05,33.10
2019,08,04,17,06,32.90
2019,08,04,17,07,32.80
2019,08,04,17,08,32.80
2019,08,04,17,09,32.80
2019,08,04,17,10,32.90
2019,08,04,17,11,32.90
2019,08,04,17,12,32.90
2019,08,04,17,13,32.90
2019,08,04,17,14,32.90
2019,08,04,17,15,33.00
2019,08,04,17,16,33.10
2019,08,04,17,17,33.10
2019,08,04,17,18,33.10
2019,08,04,17,19,33.10